sat.trackr.live / text

‹ back to catalog

SMOS

NORAD 36036 · 2009-059A

PAYLOAD ACTIVE UNKNOWN

§ Identity

Operator
Country
ESA
Launch date
2009-11-02
Launch site
PLMSC
Launch vehicle
Mass (kg)
RCS (m²)
2.87

Purposes: earth_obs

External: N2YO · Heavens-Above · Gunter

§ Orbital elements

Epoch: 2026-05-25T02:48:18.533088Z

Period
100.02 min
Inclination
98.4429°
Eccentricity
0.0001314
Mean motion
14.39758385 rev/d
Perigee alt
758.4 km
Apogee alt
760.2 km
Semi-major
7,137.4 km
B*
7.9201e-5
RAAN
332.7899°
Arg perigee
92.2354°
Mean anomaly
267.8985°
Rev number
87,013

§ Raw data

SMOS1 36036U 09059A   26145.11688117  .00000205  00000+0  79201-4 0  99912 36036  98.4429 332.7899 0001314  92.2354 267.8985 14.39758385870138

JSON: /api/v1/satellites/36036 · /tle

For live sub-satellite position, see the globe view (requires WebGL).

§ Visibility from observer

Set your observer location to see the next 7 days of passes ≥ 10°. The values pass through the URL so the page stays shareable.

No JS? Fill the form by hand. The geolocation button needs JavaScript.